Terminal Aerodrome Forecast
Issued by NWS

Home | Current Version | Previous Version | Text Only | Print | Product List | Glossary On
Versions: 1 2 3 4 5 6 7 8 9 10 11 12 13 14 15 16 17 18 19 20 21 22 23 24 25 26
000
FTUS46 KSGX 191700
TAFSAN
TAF
KSAN 191722Z 1918/2024 30006KT P6SM BKN035
     FM192000 29009KT P6SM SCT035
     FM200100 VRB04KT P6SM BKN026
     FM201700 30006KT P6SM SCT030=

USA.gov is the U.S. government's official web portal to all federal, state and local government web resources and services.